Location: Leipzig
(51.3392°N, 12.3528°E)
Time: 11:00:35
(UTC+01:00)

ISS - Pass Details

Date: 07 January 2018
Orbit: 402 x 407 km, 51.6° (Epoch: 18 January)

Event Time Altitude Azimuth Distance (km) Brightness Sun altitude
Exits shadow 07:28:57 - 280° (W) 1,621 -1.4 -6.8°
Reaches altitude 10° 07:29:19 10° 279° (W) 1,470 -1.6 -6.7°
Maximum altitude 07:32:33 54° 201° (SSW) 500 -3.3 -6.3°
Drops below altitude 10° 07:35:46 10° 123° (ESE) 1,467 0.9 -5.9°
Sets 07:37:52 0° 119° (ESE) 2,326 3.1 -5.6°
